Sigfox identifier Datetime Temperature Humidity SNR
003BDABC 2018-10-09 09:11:33 21 39 18.7
003BDABC 2018-10-09 01:53:18 20.9 38 19.3
003BDABC 2018-10-09 00:50:45 20.9 37 19.3
003BDABC 2018-10-08 23:48:09 20.8 37 19.7
003BDABC 2018-10-08 22:45:27 20.8 37 19.7
003BDABC 2018-10-08 15:27:06 20.6 36 19.8
003BDABC 2018-10-08 13:21:41 20.6 36 19.7
003BDABC 2018-10-08 11:16:22 20.4 34 19.7
003BDABC 2018-10-08 10:13:48 20.4 34 19.7
003BDABC 2018-10-08 09:11:09 20.3 35 19.7
003BDABC 2018-10-08 08:08:31 20.4 35 19.8
003BDABC 2018-10-08 07:05:51 20.4 35 19.8
003BDABC 2018-10-08 06:03:13 20.4 36 19.9
003BDABC 2018-10-08 05:00:34 20.4 36 20
003BDABC 2018-10-08 03:57:55 20.4 36 17.8
003BDABC 2018-10-08 02:55:17 20.4 37 17.8
003BDABC 2018-10-08 01:52:36 20.4 37 17.7
003BDABC 2018-10-08 00:49:58 20.6 37 17.7
003BDABC 2018-10-07 23:47:19 20.6 37 17.7
003BDABC 2018-10-07 22:44:42 20.6 38 17.4
003BDABC 2018-10-07 21:42:02 20.6 38 17.7
003BDABC 2018-10-07 20:39:22 20.6 38 17.3
003BDABC 2018-10-07 19:36:42 20.6 38 17.2
003BDABC 2018-10-07 18:34:01 20.6 38 16.7
003BDABC 2018-10-07 17:31:21 20.6 38 16.5
003BDABC 2018-10-07 16:28:43 20.6 38 16.7
003BDABC 2018-10-07 15:26:01 20.6 38 16
003BDABC 2018-10-07 14:23:22 20.6 38 16.5
003BDABC 2018-10-07 13:20:43 20.6 38 15.7
003BDABC 2018-10-07 12:18:02 20.6 38 15.7
003BDABC 2018-10-07 11:15:22 20.6 38 16
003BDABC 2018-10-07 10:12:43 20.6 39 16.3
003BDABC 2018-10-07 09:10:00 20.7 39 16.3
003BDABC 2018-10-07 08:07:24 20.7 39 16.6
003BDABC 2018-10-07 07:04:46 20.6 39 16.8
003BDABC 2018-10-07 06:02:07 20.8 39 16.7
003BDABC 2018-10-07 04:59:28 20.8 39 16.9
003BDABC 2018-10-07 03:56:49 20.8 39 16.7
003BDABC 2018-10-07 02:54:06 20.8 39 16.5
003BDABC 2018-10-07 01:51:26 20.8 39 16.4
003BDABC 2018-10-07 00:48:46 20.8 39 16.6
003BDABC 2018-10-06 23:46:08 20.8 39 16.7
003BDABC 2018-10-06 22:43:29 20.8 39 17.2
003BDABC 2018-10-06 21:40:47 20.8 39 17.6
003BDABC 2018-10-06 20:38:08 20.8 39 17.9
003BDABC 2018-10-06 19:35:30 20.9 39 17.7
003BDABC 2018-10-06 18:32:45 20.9 40 17.9
003BDABC 2018-10-06 17:30:06 20.8 40 17.9
003BDABC 2018-10-06 16:27:27 20.9 40 17.9
003BDABC 2018-10-06 15:24:44 20.8 40 18.2
003BDABC 2018-10-06 14:22:04 20.9 40 18.1
003BDABC 2018-10-06 13:19:22 21 40 18.1
003BDABC 2018-10-06 12:16:41 20.9 40 17.7
003BDABC 2018-10-06 11:13:56 20.9 40 18
003BDABC 2018-10-06 10:11:16 21 40 18
003BDABC 2018-10-06 09:08:32 21 40 17.9
003BDABC 2018-10-06 08:05:54 21 40 18
003BDABC 2018-10-06 07:03:15 21 41 18.2
003BDABC 2018-10-06 06:00:35 21 41 18.5
003BDABC 2018-10-06 04:57:57 21.2 41 18.7
003BDABC 2018-10-06 03:55:16 21.2 41 19.1
003BDABC 2018-10-06 02:52:35 21.2 42 19
003BDABC 2018-10-06 01:49:54 21.2 42 19.3
003BDABC 2018-10-06 00:47:13 21.3 42 19.5
003BDABC 2018-10-05 23:44:32 21.4 42 19.5
003BDABC 2018-10-05 22:41:52 21.4 43 19.7
003BDABC 2018-10-05 21:39:13 21.5 43 19.5
003BDABC 2018-10-05 20:36:39 21.4 43 19.5
003BDABC 2018-10-05 19:33:58 21.5 44 19.2
003BDABC 2018-10-05 18:31:16 21.7 44 19
003BDABC 2018-10-05 17:28:35 21.7 45 18.9
003BDABC 2018-10-05 16:25:52 21.4 46 18.7
003BDABC 2018-10-05 15:23:12 21.3 46 18.9
003BDABC 2018-10-05 14:20:32 21.2 46 18.9
003BDABC 2018-10-05 13:17:50 21.2 45 18.9
003BDABC 2018-10-05 12:15:11 21 43 18.9
003BDABC 2018-10-05 11:12:35 20.8 41 18.9
003BDABC 2018-10-05 10:09:54 20.8 37 19
003BDABC 2018-10-05 09:07:14 20.6 35 18.9
003BDABC 2018-10-05 08:04:39 20.6 32 19.1
003BDABC 2018-10-05 07:01:55 20.6 30 18.9
003BDABC 2018-10-05 05:59:12 20.6 29 18.7
003BDABC 2018-10-05 04:56:33 20.6 28 18.8
003BDABC 2018-10-05 03:53:48 20.6 28 18.3
003BDABC 2018-10-05 02:51:07 20.6 28 17.9
003BDABC 2018-10-05 01:48:26 20.7 29 17.8
003BDABC 2018-10-05 00:45:47 20.8 29 17.8
003BDABC 2018-10-04 23:43:09 20.8 30 17.6
003BDABC 2018-10-04 22:40:24 21 29 17.6
003BDABC 2018-10-04 21:37:41 21 29 17.9
003BDABC 2018-10-04 20:34:57 21 29 17.8
003BDABC 2018-10-04 19:32:15 21 28 17.9
003BDABC 2018-10-04 18:29:37 21.2 27 19.9
003BDABC 2018-10-04 17:27:00 21.4 27 19.9
003BDABC 2018-10-04 16:24:21 21.3 30 19.9
003BDABC 2018-10-04 15:21:47 20.8 30 20
003BDABC 2018-10-04 14:19:05 20.7 30 20
003BDABC 2018-10-04 13:16:26 20.6 31 20.2
003BDABC 2018-10-04 12:13:48 20.5 32 20.1
003BDABC 2018-10-04 11:11:09 20.4 33 20.2
003BDABC 2018-10-04 10:08:29 20.4 34 20.3
003BDABC 2018-10-04 09:05:54 20.2 34 20.5
003BDABC 2018-10-04 08:03:14 20.3 36 20.4
003BDABC 2018-10-04 07:00:35 20.4 37 20.4
003BDABC 2018-10-04 05:57:53 20.4 37 20.3
003BDABC 2018-10-04 04:55:13 20.4 38 20.4
003BDABC 2018-10-04 03:52:33 20.4 38 20.4
003BDABC 2018-10-04 02:49:52 20.5 39 20.3
003BDABC 2018-10-04 01:47:13 20.6 39 20.3
003BDABC 2018-10-04 00:44:35 20.6 39 20.4
003BDABC 2018-10-03 23:41:54 20.6 40 20.2
003BDABC 2018-10-03 22:39:17 20.7 40 20.1
003BDABC 2018-10-03 21:36:38 20.8 41 19.9
003BDABC 2018-10-03 20:34:00 20.8 41 19.8
003BDABC 2018-10-03 19:31:22 20.8 41 19.5
003BDABC 2018-10-03 18:28:48 20.8 42 19.4
003BDABC 2018-10-03 17:26:11 20.8 43 19.3
003BDABC 2018-10-03 16:23:34 20.8 43 16.6
003BDABC 2018-10-03 15:20:59 20.8 43 17
003BDABC 2018-10-03 14:18:19 20.6 42 17.2
003BDABC 2018-10-03 13:15:41 20.6 42 17.1
003BDABC 2018-10-03 12:12:58 20.6 41 17.1
003BDABC 2018-10-03 11:10:17 20.6 41 16.7
003BDABC 2018-10-03 10:07:38 20.4 41 16.9
003BDABC 2018-10-03 09:04:55 20.4 39 16.5
003BDABC 2018-10-03 08:02:19 20.4 40 16
003BDABC 2018-10-03 06:59:44 20.4 40 15.4
003BDABC 2018-10-03 05:57:10 20.4 40 15.4
003BDABC 2018-10-03 04:54:35 20.5 40 15.5
003BDABC 2018-10-03 03:52:02 20.6 41 14.9
003BDABC 2018-10-03 02:49:24 20.6 41 15
003BDABC 2018-10-03 01:46:44 20.6 41 14.4
003BDABC 2018-10-03 00:44:08 20.6 41 14.6
003BDABC 2018-10-02 23:41:26 20.6 40 14.8
003BDABC 2018-10-02 22:38:46 20.8 40 13.8
003BDABC 2018-10-02 21:36:08 20.8 40 14.2
003BDABC 2018-10-02 20:33:33 20.8 40 14.2
003BDABC 2018-10-02 19:30:50 20.8 40 14.6
003BDABC 2018-10-02 18:28:10 20.9 40 15.2
003BDABC 2018-10-02 17:25:35 21 41 15.9
003BDABC 2018-10-02 16:22:53 21 40 16.7
003BDABC 2018-10-02 15:20:11 21 41 18.1
003BDABC 2018-10-02 14:17:27 20.8 41 20.9
003BDABC 2018-10-02 13:14:45 20.6 52 0